Ionia, MI

9:36 PM EDT on June 25, 2017 (GMT -0400)
Ionia

Weather History for KY70 - December, 2011

Change the Weather History Date:

Sunday, December 11, 2011

  Actual Average (KGRR) Record (KGRR)
Temperature  
Mean Temperature 30 °F -  
Max Temperature 40 °F 34 °F 63 °F (1949)
Min Temperature 21 °F 21 °F -3 °F (1962)
Degree Days  
Heating Degree Days 34    
Moisture  
Dew Point 19 °F    
Average Humidity 66    
Maximum Humidity 77    
Minimum Humidity 51    
Precipitation  
Precipitation 0.00 in - - ()
Sea Level Pressure  
Sea Level Pressure 30.37 in    
Wind  
Wind Speed 11 mph (SSW)    
Max Wind Speed 18 mph    
Max Gust Speed 23 mph    
Visibility 10 miles    
Events      
Averages and records for this station are not official NWS values.
T = Trace of Precipitation, MM = Missing Value Source: NWS Daily Summary

Daily Weather History Graph

Daily Weather History Graph

Search for Another Location

Airport or City:

Trip Planner

Search our weather history database for the weather conditions in past years. The results will help you decide how hot, cold, wet, or windy it might be!

Date:

Astronomy

Dec. 11, 2011 Rise Set
Actual Time 8:01 AM EST 5:05 PM EST
Civil Twilight 7:28 AM EST 5:37 PM EST
Nautical Twilight 6:53 AM EST 6:13 PM EST
Astronomical Twilight 6:18 AM EST 6:48 PM EST
Moon 6:15 PM EST (12/11) 8:48 AM EST (12/11)
Length of Visible Light 10h 09m
Length of Day
9h 04m
Full, 99% of the Moon is Illuminated
Dec 11
Full
Dec 17
Last Quarter
Dec 24
New
Jan 1
First Quarter
Jan 9
Full

Hourly Weather History & Observations

Time (EST) Temp. Windchill Dew Point Humidity Pressure Visibility Wind Dir Wind Speed Gust Speed Precip Events Conditions
12:13 AM 21.9 °F 10.4 °F 10.4 °F 61% 30.38 in 10.0 mi SSW 11.5 mph - N/A   Scattered Clouds
12:33 AM 21.6 °F 11.3 °F 10.4 °F 62% 30.38 in 10.0 mi SSW 9.2 mph - N/A   Clear
12:53 AM 21.6 °F 12.1 °F 10.6 °F 63% 30.38 in 10.0 mi SSW 8.1 mph - N/A   Scattered Clouds
1:13 AM 21.9 °F 11.7 °F 10.9 °F 63% 30.38 in 10.0 mi SSW 9.2 mph - N/A   Mostly Cloudy
1:33 AM 22.5 °F 12.4 °F 10.9 °F 61% 30.38 in 10.0 mi SSW 9.2 mph - N/A   Overcast
1:53 AM 23.2 °F 12.6 °F 11.5 °F 61% 30.37 in 10.0 mi SSW 10.4 mph - N/A   Overcast
2:13 AM 23.9 °F 12.9 °F 11.5 °F 59% 30.37 in 10.0 mi SW 11.5 mph - N/A   Overcast
2:33 AM 24.1 °F 14.4 °F 12.9 °F 62% 30.38 in 10.0 mi SW 9.2 mph - N/A   Overcast
2:53 AM 24.6 °F 14.4 °F 13.3 °F 62% 30.38 in 10.0 mi SSW 10.4 mph - N/A   Overcast
3:13 AM 24.8 °F 14.6 °F 14.2 °F 64% 30.39 in 10.0 mi SSW 10.4 mph - N/A   Overcast
3:33 AM 25.0 °F 15.5 °F 14.7 °F 65% 30.39 in 10.0 mi SSW 9.2 mph - N/A   Overcast
3:53 AM 24.8 °F 16.1 °F 14.9 °F 66% 30.38 in 10.0 mi SSW 8.1 mph - N/A   Overcast
4:13 AM 24.4 °F 13.5 °F 14.9 °F 67% 30.37 in 10.0 mi SSW 11.5 mph - N/A   Overcast
4:33 AM 23.9 °F 14.2 °F 15.4 °F 70% 30.37 in 10.0 mi SSW 9.2 mph - N/A   Overcast
4:53 AM 23.7 °F 12.6 °F 15.8 °F 72% 30.37 in 10.0 mi SSW 11.5 mph - N/A   Scattered Clouds
5:13 AM 23.5 °F 11.8 °F 16.2 °F 73% 30.37 in 10.0 mi SSW 12.7 mph - N/A   Clear
5:33 AM 23.7 °F 13.3 °F 16.5 °F 74% 30.37 in 10.0 mi SSW 10.4 mph - N/A   Clear
5:53 AM 23.5 °F 13.0 °F 16.7 °F 75% 30.38 in 10.0 mi SSW 10.4 mph - N/A   Clear
6:13 AM 23.5 °F 13.0 °F 16.7 °F 75% 30.37 in 10.0 mi SSW 10.4 mph - N/A   Clear
6:33 AM 23.5 °F 13.7 °F 17.2 °F 77% 30.38 in 10.0 mi SSW 9.2 mph - N/A   Clear
6:53 AM 23.9 °F 12.9 °F 17.4 °F 76% 30.37 in 10.0 mi SSW 11.5 mph - N/A   Clear
7:13 AM 23.4 °F 12.2 °F 17.2 °F 77% 30.38 in 10.0 mi SSW 11.5 mph - N/A   Clear
7:33 AM 23.5 °F 11.8 °F 16.7 °F 75% 30.39 in 10.0 mi SSW 12.7 mph - N/A   Clear
7:53 AM 23.4 °F 11.6 °F 16.7 °F 76% 30.39 in 10.0 mi SSW 12.7 mph 19.6 mph N/A   Clear
8:13 AM 23.4 °F 12.2 °F 16.7 °F 76% 30.39 in 10.0 mi SSW 11.5 mph - N/A   Clear
8:33 AM 23.7 °F 13.3 °F 17.2 °F 76% 30.40 in 10.0 mi SSW 10.4 mph - N/A   Clear
8:53 AM 24.8 °F 14.0 °F 17.6 °F 74% 30.40 in 10.0 mi SSW 11.5 mph - N/A   Clear
9:13 AM 26.6 °F 15.7 °F 18.3 °F 71% 30.41 in 10.0 mi SW 12.7 mph - N/A   Clear
9:33 AM 27.5 °F 16.8 °F 18.3 °F 68% 30.41 in 10.0 mi SSW 12.7 mph 17.3 mph N/A   Clear
10:13 AM 30.0 °F 20.5 °F 19.2 °F 64% 30.41 in 10.0 mi SSW 11.5 mph - N/A   Clear
10:33 AM 31.3 °F 22.7 °F 19.6 °F 62% 30.41 in 7.0 mi SSW 10.4 mph - N/A   Clear
10:53 AM 32.7 °F 24.5 °F 20.5 °F 61% 30.41 in 10.0 mi SSW 10.4 mph - N/A   Clear
11:13 AM 34.2 °F 24.8 °F 21.0 °F 59% 30.40 in 10.0 mi SSW 13.8 mph - N/A   Clear
11:33 AM 35.2 °F 26.6 °F 21.2 °F 57% 30.40 in 10.0 mi SSW 12.7 mph 18.4 mph N/A   Clear
12:13 PM 36.5 °F 27.4 °F 22.1 °F 56% 30.38 in 10.0 mi SSW 15.0 mph - N/A   Clear
12:33 PM 37.2 °F 27.9 °F 22.5 °F 55% 30.38 in 10.0 mi SSW 16.1 mph 21.9 mph N/A   Clear
12:53 PM 37.6 °F 28.1 °F 22.8 °F 55% 30.37 in 10.0 mi SSW 17.3 mph 20.7 mph N/A   Clear
1:13 PM 38.3 °F 28.7 °F 22.8 °F 54% 30.37 in 10.0 mi SSW 18.4 mph 23.0 mph N/A   Clear
1:33 PM 38.5 °F 29.6 °F 22.6 °F 53% 30.37 in 10.0 mi SSW 16.1 mph - N/A   Clear
1:53 PM 39.2 °F 31.2 °F 23.2 °F 53% 30.36 in 10.0 mi SSW 13.8 mph - N/A   Clear
2:13 PM 39.6 °F 31.3 °F 23.2 °F 52% 30.36 in 10.0 mi SSW 15.0 mph - N/A   Clear
2:33 PM 40.1 °F 32.7 °F 23.5 °F 52% 30.35 in 10.0 mi SSW 12.7 mph - N/A   Clear
2:53 PM 40.1 °F 32.7 °F 23.7 °F 52% 30.35 in 10.0 mi SSW 12.7 mph - N/A   Clear
3:13 PM 40.1 °F 33.2 °F 23.4 °F 51% 30.35 in 10.0 mi SSW 11.5 mph 20.7 mph N/A   Clear
3:33 PM 40.1 °F 33.2 °F 24.3 °F 53% 30.35 in 10.0 mi South 11.5 mph - N/A   Clear
3:53 PM 39.4 °F 32.3 °F 24.1 °F 54% 30.35 in 10.0 mi South 11.5 mph - N/A   Clear
4:13 PM 38.5 °F 30.3 °F 24.3 °F 57% 30.35 in 10.0 mi South 13.8 mph - N/A   Clear
4:33 PM 37.4 °F 30.8 °F 24.8 °F 60% 30.35 in 10.0 mi South 9.2 mph - N/A   Clear
4:53 PM 36.3 °F 30.1 °F 24.8 °F 63% 30.35 in 10.0 mi South 8.1 mph - N/A   Clear
5:13 PM 35.1 °F 27.9 °F 24.8 °F 66% 30.35 in 10.0 mi South 9.2 mph - N/A   Clear
5:33 PM 34.2 °F 27.5 °F 24.8 °F 69% 30.34 in 10.0 mi South 8.1 mph - N/A   Clear
5:53 PM 34.0 °F 26.0 °F 24.8 °F 69% 30.35 in 10.0 mi South 10.4 mph - N/A   Clear
6:13 PM 33.1 °F 25.5 °F 24.8 °F 72% 30.35 in 10.0 mi South 9.2 mph - N/A   Clear
6:33 PM 32.9 °F 24.7 °F 24.8 °F 72% 30.35 in 10.0 mi South 10.4 mph - N/A   Clear
6:53 PM 32.4 °F 25.3 °F 24.8 °F 74% 30.35 in 10.0 mi South 8.1 mph - N/A   Clear
7:13 PM 32.0 °F 23.0 °F 24.8 °F 75% 30.35 in 10.0 mi South 11.5 mph 16.1 mph N/A   Clear
7:33 PM 32.0 °F 23.0 °F 24.6 °F 74% 30.36 in 10.0 mi SSW 11.5 mph - N/A   Clear
7:53 PM 32.0 °F 23.0 °F 24.4 °F 74% 30.36 in 10.0 mi SSW 11.5 mph - N/A   Clear
8:13 PM 31.8 °F 23.3 °F 24.4 °F 74% 30.36 in 10.0 mi South 10.4 mph - N/A   Clear
8:33 PM 31.8 °F 23.3 °F 24.3 °F 74% 30.36 in 10.0 mi South 10.4 mph - N/A   Clear
8:53 PM 31.8 °F 23.3 °F 24.3 °F 74% 30.36 in 10.0 mi SSW 10.4 mph 16.1 mph N/A   Clear
9:53 PM 31.5 °F 22.9 °F 23.7 °F 73% 30.37 in 10.0 mi SSW 10.4 mph - N/A   Clear
10:13 PM 31.1 °F 22.4 °F 23.7 °F 74% 30.37 in 10.0 mi SSW 10.4 mph - N/A   Clear
10:33 PM 30.9 °F 22.2 °F 23.5 °F 74% 30.37 in 10.0 mi SSW 10.4 mph - N/A   Clear
10:53 PM 30.6 °F 23.1 °F 23.4 °F 75% 30.37 in 10.0 mi SSW 8.1 mph - N/A   Clear
11:13 PM 30.0 °F 23.2 °F 23.4 °F 76% 30.37 in 10.0 mi SSW 6.9 mph - N/A   Clear